User: anonymous   Login
Location: Unspecified
(0.0000°N, 0.0000°E)
Time: 23:04:20
(UTC+00:00)
Language:

STARLINK-11682 [DTC] - Orbit

View from above orbital plane
View from above orbital plane
View from above satellite
View from above satellite

Ground track
Ground track

The orbit is defined by the following mean orbital elements,

1 64234U          26145.33685275 +.00000000 +00000-0 +15465-2 0 00002
2 64234  43.0005 107.6187 0000931 259.3058 100.7705 15.70894793    01
Epoch (UTC): 25 May 2026 08:05:04
Eccentricity: 0.0000931
inclination: 43.0005°
perigee height: 356 km
apogee height: 357 km
right ascension of ascending node: 107.6187°
argument of perigee: 259.3058°
revolutions per day: 15.70894793
mean anomaly at epoch: 100.7705°

The dashed part of the orbit path shows where the satellite is in the earth's shadow,  

DLR